Showing default

DIRECTV 15, 40663

Orbit data source: Space-Track

DIRECTV 15, 40663 is a payload satellite owned by DirecTV (US) in GEO that was launched on Wed, 27 May 2015 UTC via an ARIANE 5ECA launch vehicle from the French Guiana (FRGUI). Payloads include a variety of satellites, spacecraft, and rockets equipped with specific instruments for various scientific and technological missions. These include communications satellites like Starlink; space stations such as the ISS; scientific satellites like the Hubble; Earth observation satellites from companies like Planet Labs, Umbra, and HawkEye 360; GPS; miniature CubeSats for education and research; and military/defense satellites.

Loading next visibility...
DIRECTV 15 details
Identifier
40663, 2015-026A
Orbit
GEO
Last TLE update13 hours ago
Origin
Flag of USDirecTV (US)
ManufacturerAirbus/Toulouse
MissionOperational Commercial Communications
Bus & MotorEUROSTAR 3000, R-4D?
Mass6,205 kg wet, 3,381 kg dry
Launch date (UTC)
2015-05-27 (10 years ago)
Launch vehicle
ARIANE 5ECA
Launch site
French Guiana (FRGUI)
Object type
Payload
Rocket body
Debris
Shape & HBRBox + 2 Pan, 45 m
Radar Cross Section49.053 m², Large (>1 m²)

Expand to show TLE details & history

TLE from 13 hours ago
0 DIRECTV 15
1 40663U 15026A   24360.93701942 -.00000074  00000-0  00000+0 0  9994
2 40663   0.0158  33.4249 0000553 117.9983 177.9657  1.00269848 35133
Epoch: 2024-12-25T22:29Z
Definitive object data (Epoch: 2024-12-25T22:29:18.477Z)
Latitude-0.02491°
Longitude-102.86874°
Altitude35,788.956 km
Speed3.075 km/s
True Right ascension21h 57m 31s
True Declination0° 01' 30"
Sunlit
Object was in daylight at TLE epoch
Visualization TLE readout
Latitude0.02272°
Longitude85.45139°
Altitude35,784.319 km
Speed3.075 km/s
Apparent Right ascension10h 31m 59s
Apparent Declination-6° 12' 30"
Sunlit
Object is in daylight
Visualization observer readout
Local Sidereal Time10:21:49
Azimuth176.498° S
Elevation43.816°
Doppler factor1
Orbital elements
Apogee altitude35,790.54 km
Perigee altitude35,785.877 km
Semi-major axis42,166.345 km
Eccentricity0.0000553
Inclination0.0158°
RAAN33.4249°
Arg. of periapsis117.9983°
True anomaly177.96592°
Mean anomaly177.9657°
Eccentric anomaly177.96581°
Mean motion0.25067 °/min
BSTARUnknown
Orbital period1436.18 mins
Loading historical data...
40663 neighbors
Authenticating...
Loading maneuver chart data...
Loading historical data...
Loading historical data...
Loading historical data...
Loading historical data...
Loading historical data...
Loading historical data...
Loading historical data...
Other satellites on launch #26 in the year 2015 (2015-05-27 UTC)

DIRECTV 15 Visibility forecast

Observer location: undefined°, undefined

Span
Click to sort rows by Start time (UTC) header in descending order
Start Az.
Max El. time (UTC)
Max El. Az.
Max El.
End time (UTC)
End Az.
1440 mins2024-12-26 11:00:32.726Z176.499° S2024-12-27 08:44:32.726Z176.514° S34.697°2024-12-27 11:00:32.726Z176.51° S
|